Weather in Kengtung

Myanmar     21°17′30″N   99°36′29″E
temp.,
°C
wind,
m/s
gust,
m/s
humid.,
%
clouds,
%
prec.,
mm/h
press.,
hPa
HPBL,
m
18 may, tue
tue1800:30+21sw1164100 0.0 100913
03:30+23ssw0160100 0.0 100815
06:30+23ssw116133 0.0 101065
09:30+31w243717 0.0 10102320
12:30+34wsw352665 0.0 10063641
15:30+32wnw452970 0.0 10032202
18:30+26wsw115155 0.0 100615
21:30+24ssw1155100 0.0 100834
19 may, wed
wed1900:30+22ssw1265100 0.0 100850
03:30+21ssw1177100 0.0 100721
06:30+23sw126816 0.0 1009132
09:30+29wsw254976 0.8 10091653
12:30+32w3632100 1.0 10052937
15:30+31wsw2637100 0.0 10032127
18:30+23wsw2273100 0.7 100645
21:30+20sw1193100 4.9 100949
20 may, thu
thu2000:30+20ssw1191100 4.9 100812
03:30+19wsw1191100 0.0 100817
06:30+21wsw1284100 0.0 100974
09:30+29w244665 0.0 10081497
12:30+33w243344 0.0 10052830
15:30+32wsw343239 0.0 10022499
18:30+25wsw225044 0.0 100422
21:30+25w1155100 0.0 100717
21 may, fri
fri2100:30+24wsw115899 0.0 100633
03:30+21wsw116892 0.0 100627
06:30+24wsw126113 0.0 100791
09:30+30w244036 0.0 10071784
12:30+34wsw242967 0.0 10033105
15:30+32wnw253320 0.0 10011838
18:30+27wnw23504 0.0 100353
21:30+24wsw006781 0.5 100511
22 may, sat
sat2200:30+23wsw127124 0.6 100543
03:30+22sw2373100 0.1 100592
06:30+24wsw116635 0.1 100654
09:30+31w24397 0.0 10061800
12:30+34w233098 0.0 10023123
15:30+32wsw243387 0.1 10002155
18:30+25s116289 0.4 100218
21:30+23ssw216976 0.1 100531